User: anonymous   Login
Location: Unspecified
(0.0000°N, 0.0000°E)
Time: 15:42:59
(UTC+00:00)
Language:

NOAA 18 - Orbit

View from above orbital plane
View from above orbital plane
View from above satellite
View from above satellite

Ground track
Ground track

The orbit data is extracted from the following two-line orbital elements,

1 28654U 05018A   20191.40512742  .00000055  00000-0  54161-4 0  9998
2 28654  99.0422 248.0378 0014652 165.4195 194.7402 14.12523743780109
Epoch (UTC): 09 July 2020 09:43:23
Eccentricity: 0.0014652
inclination: 99.0422°
perigee height: 840 km
apogee height: 861 km
right ascension of ascending node: 248.0378°
argument of perigee: 165.4195°
revolutions per day: 14.12523743
mean anomaly at epoch: 194.7402°
orbit number at epoch: 78010

The dashed part of the orbit path shows where the satellite is in the earth's shadow,  

DLR